Weather observations for the past three days for
Sioux Falls, Foss Field
Metric (Imperial)
Date Time (cdt) Wind (kph) Vis. (km) Weather Sky Cond. Temperature (ºC) Relative Humidity Wind Chill (°C) Heat Index (°C) Pressure Precipitation (cm)
Air Dwpt 6 hour altimeter (cm) sea level (mb) 1 hr 3 hr 6 hr
Max. Min.
21 12:56 NE 9 3.22 Light Rain Fog/Mist BKN004 BKN031 OVC090 20.6 19.4 20.6 18.9 93% 76.38 1018.0 0.61 1.35
21 11:56 E 6 9.66 Rain Fog/Mist BKN004 OVC090 20 19.4 96% 76.45 0.0 0.28
21 10:56 E 9 11.27 Light Rain BKN005 OVC060 19.4 18.9 97% 76.48 1019.2 0.15
21 09:56 E 11 12.87 Light Rain OVC006 19.4 18.3 93% 76.48 1019.3 0.23 0.3
21 08:56 E 11 9.66 Light Rain Fog/Mist FEW025 BKN080 OVC100 19.4 17.2 87% 76.53 1019.8 0.08
21 07:56 E 15 14.48 Light Rain SCT060 OVC095 18.9 17.2 90% 76.5 1019.7
21 06:56 E 13 16.09 Overcast SCT100 OVC150 18.9 17.2 18.9 17.8 90% 76.48 1019.1 2.39
21 05:56 E 19 16.09 Overcast SCT060 BKN110 OVC150 18.9 17.2 90% 76.48 1019.4 0.08
21 04:56 E 22 16.09 Overcast FEW060 BKN090 OVC200 18.9 17.2 90% 76.45 1019.0
21 03:56 E 17 G 35 16.09 Light Rain FEW006 BKN080 OVC110 18.3 17.8 97% 76.53 1020.1 0.71 2.31
21 02:56 Vrbl 7 4.02 Thunderstorm Heavy Rain Fog/Mist BKN044 OVC055 18.3 17.2 93% 76.78 1023.5 1.02
21 01:56 E 20 8.05 Thunderstorm in Vicinity Rain Fog/Mist BKN048 OVC070 18.3 17.2 93% 76.61 1021.3 0.58
21 00:56 E 31 9.66 Thunderstorm in Vicinity Light Rain Fog/Mist SCT035 OVC070 18.3 17.2 18.9 17.2 93% 76.71 1022.5 4.52 5.51
20 22:56 E 28 G 43 4.83 Thunderstorm Heavy Rain Fog/Mist FEW005CB OVC038 17.2 16.7 97% 76.61 1021.1 0.74
20 21:56 NE 26 16.09 Thunderstorm Light Rain BKN005 BKN009CB OVC042 17.8 16.7 93% 76.63 1021.2 0.1 0.23
20 20:56 NE 20 16.09 Light Rain BKN006 OVC041 18.3 17.2 93% 76.66 1021.9 0.13
20 19:56 E 19 16.09 Overcast SCT006 OVC033 18.9 17.8 93% 76.66 1021.8
20 18:56 SE 15 16.09 Overcast FEW004 OVC039 18.3 17.2 18.3 15.6 93% 76.68 1022.2 0.03 2.11
20 17:56 SE 19 8.05 Light Rain Fog/Mist SCT004 BKN034 OVC060 17.2 16.1 93% 76.78 1023.4 0.48
20 16:56 E 11 3.22 Thunderstorm Heavy Rain Fog/Mist BKN006CB BKN046 OVC075 16.1 15 93% 76.86 1024.7 0.66
20 15:56 E 19 4.83 Thunderstorm Light Rain Fog/Mist OVC006CB 15.6 15 96% 76.86 1024.8 0.36 0.94
20 14:56 E 19 16.09 Thunderstorm Light Rain BKN010CB OVC042 15.6 14.4 93% 76.89 1024.9 0.18
20 13:56 E 20 8.05 Rain Fog/Mist BKN012 BKN022 OVC070 15.6 14.4 93% 76.86 1024.7 0.41
20 12:56 NE 13 14.48 Thunderstorm Rain BKN012CB BKN049 OVC100 16.1 13.9 17.2 16.1 87% 76.99 1026.5 0.03 1.17
20 11:56 E 26 9.66 Light Rain Fog/Mist FEW009 BKN100 OVC250 16.1 14.4 90% 76.94 1025.5 0.3
20 10:56 E 11 8.05 Light Rain Fog/Mist FEW020 BKN060 OVC110 17.2 15.6 90% 77.04 1026.8 0.58
20 09:56 NE 6 12.87 Light Rain FEW027 OVC041 17.2 15.6 90% 77.06 1027.3 0.15 0.25
20 08:56 E 13 14.48 Light Rain FEW025 OVC041 17.2 15 87% 76.99 1026.2 0.05
20 06:56 E 15 16.09 Overcast OVC045 16.7 14.4 17.2 16.1 86% 76.94 1025.3 0.1
20 05:56 E 17 16.09 Light Rain FEW025 SCT060 OVC110 16.7 14.4 86% 76.96 1025.6 0.05
20 04:56 N 6 16.09 Light Rain OVC060 16.7 14.4 86% 77.04 1026.6 0.03
20 03:56 E 7 16.09 Mostly Cloudy BKN060 16.7 14.4 86% 76.99 1025.9 0.03
20 02:56 E 9 16.09 Partly Cloudy SCT110 16.7 14.4 86% 76.94 1025.4
20 01:56 E 13 16.09 Overcast SCT090 OVC120 16.7 14.4 86% 76.99 1026.2 0.03
20 00:56 NE 17 14.48 Rain OVC090 16.7 14.4 21.7 16.7 86% 77.01 1026.6 0.03 0.03
19 23:56 NW 7 16.09 Overcast OVC095 17.8 13.3 75% 77.04 1026.9
19 22:56 NE 9 16.09 Mostly Cloudy BKN100 BKN200 17.8 13.3 75% 76.96 1025.9
19 21:56 E 9 16.09 Mostly Cloudy BKN110 BKN180 18.3 13.3 73% 76.94 1025.5
19 20:56 E 17 16.09 Mostly Cloudy SCT120 BKN250 18.9 12.8 68% 76.91 1025.0
19 19:56 E 15 16.09 Mostly Cloudy FEW040 BKN110 BKN250 20 12.8 63% 76.91 1025.1
19 18:56 E 19 16.09 Mostly Cloudy FEW040 BKN100 BKN250 21.7 12.8 22.2 20 57% 76.89 1024.9
19 17:56 E 17 16.09 Mostly Cloudy FEW040 BKN100 BKN250 21.7 12.2 55% 76.91 1025.0
19 16:56 E 13 16.09 Mostly Cloudy FEW039 SCT100 BKN250 21.7 12.2 55% 76.91 1025.1
19 15:56 N 13 16.09 Mostly Cloudy SCT038 BKN100 BKN250 21.7 12.2 55% 76.94 1025.4
19 14:56 NE 9 16.09 Mostly Cloudy SCT038 BKN120 BKN250 21.7 12.2 55% 76.94 1025.5
19 13:56 NE 6 16.09 Mostly Cloudy SCT034 BKN130 20.6 12.2 59% 76.96 1025.7
19 12:56 NE 7 16.09 Mostly Cloudy SCT028 BKN250 20 12.2 20 15 61% 76.99 1026.1
19 11:56 N 15 16.09 Overcast SCT028 SCT190 OVC250 19.4 12.2 63% 76.96 1025.8
19 10:56 N 13 16.09 Overcast FEW020 BKN130 OVC250 18.3 12.2 68% 76.91 1025.2
19 09:56 N 19 16.09 Mostly Cloudy SCT017 BKN130 BKN250 17.8 12.8 73% 76.86 1024.6
19 08:56 N 13 16.09 Mostly Cloudy FEW020 SCT140 BKN250 17.2 13.3 78% 76.81 1024.0
19 07:56 NW 7 16.09 Overcast BKN110 OVC250 15.6 12.8 84% 76.78 1023.7
19 06:56 W 6 16.09 Overcast BKN150 OVC250 15 12.8 15.6 14.4 87% 76.71 1022.5
19 05:56 NW 7 16.09 Overcast BKN150 OVC250 14.4 12.2 87% 76.63 1021.3
19 04:56 Vrbl 6 16.09 Overcast OVC140 15 12.8 87% 76.53 1020.0
19 03:56 W 6 16.09 Overcast OVC110 15.6 12.8 84% 76.45 1019.0
19 02:56 W 7 16.09 Overcast OVC110 15.6 13.3 86% 76.38 1017.8
19 01:56 NW 7 16.09 Overcast OVC120 15 12.8 87% 76.33 1017.1
19 00:56 NW 7 16.09 Partly Cloudy SCT110 15.6 12.2 19.4 15.6 80% 76.28 1016.3 0.18
18 23:56 NW 11 16.09 Mostly Cloudy BKN120 16.1 12.8 81% 76.23 1015.6
18 22:56 NW 15 16.09 Mostly Cloudy BKN110 16.7 13.3 80% 76.17 1014.8
18 21:56 NW 17 16.09 Mostly Cloudy FEW070 BKN090 17.2 13.9 81% 76.05 1013.2 0.18
18 20:56 NW 20 16.09 Mostly Cloudy SCT049 BKN060 17.2 14.4 84% 75.9 1011.1 0.13
18 19:56 NW 19 11.27 Light Rain BKN019 BKN047 17.8 14.4 81% 75.87 1010.8 0.05
18 18:56 NW 19 16.09 Overcast BKN019 OVC047 19.4 15 27.8 19.4 76% 75.74 1009.2 0.03
18 17:56 NW 19 G 43 16.09 Overcast BKN018 OVC023 20 15.6 76% 75.59 1007.0
18 16:56 W 22 G 39 16.09 Overcast OVC016 20 16.7 81% 75.54 1006.2
18 15:56 NW 26 G 41 16.09 Overcast OVC014 20.6 16.7 78% 75.46 1005.1 0.03
18 14:56 W 30 G 50 14.48 Light Rain OVC012 21.7 18.9 84% 75.36 1003.8 0.03
18 13:56 W 24 G 44 16.09 Mostly Cloudy SCT015 BKN100 25.6 21.1 76% 27 75.23 1001.7
Date Time (cdt) Wind (kph) Vis. (km) Weather Sky Cond. Air Dwpt Max. Min. Relative Humidity Wind Chill (°C) Heat Index (°C) altimeter (cm) sea level (mb) 1 hr 3 hr 6 hr
6 hour
Temperature (ºC) Pressure Precipitation (cm)